STARLINK-32675 (62208 NORAD) Tracking and Keplerian Element Data

This shows tracking and keplerian element data for the satellite.

Feedback or suggestion? Click here.




ElementValue
Catalog62208
NameSTARLINK-32675
Epoch Orbit947
Epoch Day34.34604107
Epoch Year2025
RAAN7.1421
Inclination43.0039
Eccentricity0.0001545
Argument of Perigee254.6518
Mean Anonmoly105.4165
Mean Motion15.32092837
Decay Rate-6E-08
L11 62208U 24229S 25034.34604107 -.00000006 00000+0 85073-5 0 9990
L22 62208 43.0039 7.1421 0001545 254.6518 105.4165 15.32092837 9472



Live tracking and technical data element details for STARLINK-32675 (NORAD 62208). STARLINK-32675 can be tracked NOW for your location showing map with azimuth and elevation plus other details from your city location.







IsCatalogInMostPopularTable: catalog: 62208, numindb: 14
Update: records affected: 1



GetName: 62208 STARLINK-32675

Hit Count: updated at: Sat, 24 May 2025 16:09:45 GMT